ASTRA 2E

Last updated on Fri Apr 18 2025 00:02:40 GMT+0000 (Coordinated Universal Time)

1 39285U 13056A 25107.57266900 .00000160 00000+0 00000+0 0 9997 2 39285 0.0792 314.9966 0002605 69.2820 56.3260 1.00274389 42153
UTC large
Height (km)
Speed (km/s)
/
Latitude / Longitude
Inclination (degrees)
Orbital Period (minutes)
Azimuth
Elevation
Range (km)
Doppler Factor

Next 0 passes for location: London (51.5072 / 0.1276)

Sorry there are no passes over London.